Location: Newark
(37.9717°N, 99.9089°W)
Time: 21:04:32
(UTC+00:00)

N. Korean satellite - Pass Details

Date: 28 September 2021
Orbit: 450 x 495 km, 97.3° (Epoch: 25 October)

Event Time Altitude Azimuth Distance (km) Brightness Sun altitude
Rises 11:33:17 0° 18° (NNE) 2,542 10.6 -12.6°
Reaches altitude 10° 11:35:25 10° 26° (NNE) 1,666 9.7 -12.1°
Maximum altitude 11:38:51 44° 99° (E) 687 7.9 -11.5°
Drops below altitude 10° 11:42:18 10° 172° (S) 1,674 9.3 -10.8°
Sets 11:44:26 0° 179° (S) 2,555 10.2 -10.4°
